Regional Weather Roundup
Issued by NWS

Home | Current Version | Previous Version | Text Only | Print | Product List | Glossary Off
Versions: 1 2 3 4 5 6 7 8 9 10 11 12 13 14 15 16 17 18 19 20 21 22 23 24 25 26 27 28 29 30 31 32 33 34 35 36 37 38 39 40 41 42 43 44 45 46 47 48 49 50

000
ASUS43 KMKX 261520
RWRWI

WISCONSIN REGIONAL WEATHER ROUNDUP
NATIONAL WEATHER SERVICE MILWAUKEE/SULLIVAN WI
900 AM CST THU FEB 26 2015

NOTE: "FAIR" INDICATES FEW OR NO CLOUDS BELOW 12,000 FEET WITH NO
SIGNIFICANT WEATHER AND/OR OBSTRUCTIONS TO VISIBILITY.

WIZ001-002-006>008-014>016-023>028-261600-
NORTHWEST WISCONSIN

CITY           SKY/WX    TMP DP  RH WIND       PRES   REMARKS
SUPERIOR ARPT  SUNNY     -4 -14  63 NW5       30.46R WCI -15
ASHLAND        SUNNY      2  -6  69 NW3       30.40R
HAYWARD        SUNNY     -8 -13  78 CALM      30.36R
SIREN          SUNNY     -4 -14  62 NW3       30.42R
CUMBERLAND     SUNNY     -4 -13  65 N9        30.36R WCI -20
RICE LAKE      SUNNY     -3 -12  63 N6        30.40R WCI -15
CHETEK         SUNNY     -4 -12  67 NW3       30.38R
LADYSMITH      SUNNY     -2  -8  76 N8        30.36R WCI -17
EAU CLAIRE     SUNNY      0 -10  63 N8        30.38R WCI -14
MENOMONIE      MOSUNNY    0 -11  61 NW8       30.40R WCI -14
NEW RICHMOND   SUNNY     -3 -13  63 NW8       30.41R WCI -18
OSCEOLA        SUNNY     -3 -13  63 NW8       30.46R WCI -18
$$

WIZ003>005-009-010-017-018-261600-
NORTH CENTRAL WISCONSIN

CITY           SKY/WX    TMP DP  RH WIND       PRES   REMARKS
MANITOWISH WTR SUNNY     -8 -13  78 NW3       30.26R
ARBOR VITAE    SUNNY     -6 -11  79 N7        30.25R WCI -20
WOODRUFF       SUNNY     -6 -11  79 N7        30.25R WCI -20
RHINELANDER    SUNNY     -4  -9  79 VRB3      30.25R
EAGLE RIVER    SUNNY     -7 -15  68 CALM      30.25R
LAND O LAKES   SUNNY     -4  -9  79 N8        30.25R WCI -19
PHILLIPS       SUNNY     -7 -14  73 CALM      30.29R
TOMAHAWK       SUNNY     -3  -8  78 CALM      30.28S
MEDFORD        SUNNY     -4 -10  76 N5        30.27S WCI -15
MERRILL        SUNNY     -3 -10  70 NE8       30.28S WCI -18
$$

WIZ029-030-035-036-043>047-261600-
CENTRAL WISCONSIN

CITY           SKY/WX    TMP DP  RH WIND       PRES   REMARKS
WAUSAU         SUNNY     -2  -9  72 N7        30.28R WCI -15
MOSINEE        SUNNY      0  -9  65 N3        30.30R
MARSHFIELD     SUNNY      1  -8  66 N7        30.30R WCI -12
STEVENS POINT  SUNNY     -2  -9  70 NE6       30.31R WCI -14
WAUPACA        SUNNY      4  -7  60 N7        30.33R WCI  -8
WAUTOMA        SUNNY      4  -8  57 N5        30.32R WCI  -5
WISC RAPIDS    SUNNY      1  -8  66 N7        30.33R WCI -12
CAMP DOUGLAS   SUNNY      3  -6  66 NW5       30.33R WCI  -6
$$

WIZ011>013-019>022-031-037>040-048>050-261600-
NORTHEAST WISCONSIN

CITY           SKY/WX    TMP DP  RH WIND       PRES   REMARKS
ANTIGO         SUNNY     -8 -13  80 CALM      30.25S
SHAWANO        SUNNY      4  -5  64 NE5       30.32S WCI  -5
OCONTO         SUNNY      2  -7  66 N6        30.33S WCI  -9
STURGEON BAY   SUNNY      1  -8  66 N13       30.32R WCI -16
GREEN BAY      SUNNY      4  -5  66 N8        30.32R WCI  -9
MANITOWOC      SUNNY      5  -5  63 N16       30.29R WCI -14
APPLETON       SUNNY      1  -8  66 N9        30.30R WCI -14
CLINTONVILLE   SUNNY      3  -6  66 N5        30.32S WCI  -6
OSHKOSH        SUNNY      5  -6  60 N14       30.30R WCI -12
$$

WIZ032>034-041-042-053>061-261600-
SOUTHWEST WISCONSIN

CITY           SKY/WX    TMP DP  RH WIND       PRES   REMARKS
LA CROSSE      SUNNY      4  -7  60 NW12      30.39R WCI -12
SPARTA         SUNNY      3  -6  66 N6        30.36R WCI  -8
VIROQUA        SUNNY      1  -8  66 N7        30.29R WCI -11
BOSCOBEL       PTSUNNY    6  -7  54 VRB6      30.35R WCI  -4
PRAIRIE DU CHI MOSUNNY    2 -10  57 NW5       30.36R WCI  -8
PLATTEVILLE    SUNNY      3  -5  70 N15       30.27R WCI -16
$$

WIZ056-057-062-063-064-067-068-261600-
SOUTH CENTRAL WISCONSIN

CITY           SKY/WX    TMP DP  RH WIND       PRES   REMARKS
REEDSBURG      SUNNY      2  -8  63 N8        30.31R WCI -12
BARABOO/DELLS  SUNNY      2  -8  62 N6        30.30R WCI  -9
LONE ROCK      MOSUNNY    5  -7  57 N5        30.34R WCI  -4
MINERAL POINT  SUNNY      5  -6  61 N13       30.25R WCI -12
MADISON        MOSUNNY    3  -7  63 N10       30.29R WCI -12
MIDDLETON      SUNNY      5  -7  58 N9        30.29R WCI  -9
WATERTOWN      PTSUNNY    3  -4  70 N9        30.27R WCI -11
MONROE         SUNNY      5  -4  66 N14       30.24R WCI -12
JANESVILLE     MOSUNNY    7  -6  56 N9        30.26R WCI  -7
$$

WIZ051-052-058>065-066-070>072-261600-
SOUTHEAST WISCONSIN

CITY           SKY/WX    TMP DP  RH WIND       PRES   REMARKS
MILWAUKEE      PTSUNNY    9  -1  64 N12       30.24R WCI  -6
WAUKESHA       MOSUNNY    5  -6  61 NW12      30.25R WCI -11
MILWAUKEE/TIMM SUNNY      7  -6  56 N13       30.26R WCI  -9
RACINE         FOG       10   6  84 N14       30.24R VSB 1/2 WCI  -6
BURLINGTON     MOSUNNY    8  -4  59 N10       30.23R WCI  -6
KENOSHA        LGT SNOW  10   5  80 N9        30.22R WCI  -3
FOND DU LAC    SUNNY      4  -6  63 N15       30.30R WCI -14
SHEBOYGAN      SUNNY      6  -7  54 N14       30.27R WCI -11
WEST BEND      SUNNY      5  -6  61 N10       30.25S WCI -10
JUNEAU         SUNNY      3  -5  69 N9        30.28S WCI -12
$$

LSZ147-162-261600-
LAKE SUPERIOR

STATION/POSITION TIME  TEMP    WIND        PRES    WAVE
                       AIR SEA DIR/SP/G            HT/PER
                 (UTC) (F)     (DEG/KT/KT) (MB)    (FT/S)
DEVILS ISLAND    1500    1     350/ 11/ 13 1031.7R
PORT WING        1400   -2      CALM  /  2 1029.5R
SAXON HARBOR     1440    1      CALM  /  2 1029.1R
$$

LMZ867-665-643>646-261600-
LAKE MICHIGAN

STATION/POSITION TIME  TEMP    WIND        PRES    WAVE
                       AIR SEA DIR/SP/G            HT/PER
                 (UTC) (F)     (DEG/KT/KT) (MB)    (FT/S)
NORTHPORT PIER   1419    2     340/ 12/ 15 1026.4R
SISTER BAY       1413    3      10/ 10/ 12   N/A
KEWAUNEE LAKESHO 1400    0     340/  9/ 13 1024.9R
SHEBOYGAN LAKESH 1500    8     360/ 20/ 22 1026.9R
PORT WASHINGTON  1400    4     330/ 11/ 15 1025.4
MILWAUKEE LAKESH 1500    9     350/ 12/ 16   N/A
KENOSHA   LAKESH 1500   11     330/ 13/ 17 1023.4R
$$

TC  - TEMPERATURE IN CELSIUS
VSB - VISIBILITY IN STATUTE MILES
WCI - WIND CHILL INDEX
HX  - HEAT INDEX




USA.gov is the U.S. government's official web portal to all federal, state and local government web resources and services.